{"data":{"norad_id":63912,"epoch":"2026-05-25T04:05:38.039424Z","epoch_age_seconds":50529,"freshness":"FRESH","line1":"1 63912U 25095Y   26145.17057916  .00011271  00000+0  41867-3 0  9996","line2":"2 63912  42.9993 104.3697 0001257 259.6479 100.4231 15.27565271 59473","mean_motion":15.27565271,"eccentricity":0.0001257,"inclination_deg":42.9993,"raan_deg":104.3697,"arg_perigee_deg":259.6479,"mean_anomaly_deg":100.4231,"bstar":0.00041867,"rev_number":5947,"period_min":94.267657646951,"perigee_km":482.23074368258,"apogee_km":483.95565695494,"semimajor_km":6861.2302003188,"source":"CELESTRAK","updated_at":"2026-05-25T13:38:20.179843Z"}}